Regional Weather Roundup
Issued by NWS

Home | Current Version | Previous Version | Text Only | Print | Product List | Glossary On
Versions: 1 2 3 4 5 6 7 8 9 10 11 12 13 14 15 16 17 18 19 20 21 22 23 24 25 26 27 28 29 30 31 32 33 34 35 36 37 38 39 40 41 42 43 44 45 46 47 48 49 50
770
ASUS43 KLOT 261809
RWRIL

ILLINOIS REGIONAL WEATHER ROUNDUP
NATIONAL WEATHER SERVICE CHICAGO/ROMEOVILLE IL
100 PM CDT WED JUL 26 2017

NOTE: "FAIR" INDICATES FEW OR NO CLOUDS BELOW 12,000 FEET WITH NO
SIGNIFICANT WEATHER AND/OR OBSTRUCTIONS TO VISIBILITY.

* THESE STATIONS ARE NOT UNDER NWS QUALITY CONTROL. THEY ALSO MAY NOT
  REPORT WEATHER SUCH AS PRECIPITATION OR FOG.

ILZ001-002-007-009-015-016-024-261900-
NORTHWEST ILLINOIS

CITY           SKY/WX    TMP DP  RH WIND       PRES   REMARKS
MOLINE         NOT AVBL
STERLING*      CLOUDY    80  74  81 CALM      30.04F HX  85
SAVANNA*       CLOUDY    80  73  80 SE6       30.02F HX  84
$$

ILZ003-004-008-010-011-017-018-261900-
NORTH CENTRAL ILLINOIS

CITY           SKY/WX    TMP DP  RH WIND       PRES   REMARKS
ROCKFORD       CLOUDY    83  73  72 SW6       30.05F HX  89
6HR MIN TEMP:  67; 6HR MAX TEMP:  83;

FREEPORT*      CLOUDY    78  72  83 CALM      30.06S HX  80
ROCHELLE*      CLOUDY    80  74  82 S8        30.05S HX  84
DE KALB*       CLOUDY    81  74  80 S6        30.06F HX  86
PERU*          CLOUDY    80  71  73 S6        30.05F HX  84
$$

ILZ005-006-012>014-019>023-261900-
NORTHEAST ILLINOIS

CITY           SKY/WX    TMP DP  RH WIND       PRES   REMARKS
CHICAGO-OHARE  CLOUDY    84  69  60 SW9       30.03F HX  88
6HR MIN TEMP:  68; 6HR MAX TEMP:  84;

CHICAGO-MIDWAY PTSUNNY   84  70  62 S9        30.04F HX  88
6HR MIN TEMP:  69; 6HR MAX TEMP:  84;

AURORA         PTSUNNY   82  73  74 SW8       30.06F HX  87
6HR MIN TEMP:  66; 6HR MAX TEMP:  83;

LANSING*       MOSUNNY   81  67  63 SW5       30.06S HX  83
JOLIET*        CLOUDY    83  73  71 S5        30.05F HX  89
WAUKEGAN       PTSUNNY   82  72  71 VRB3      30.03F HX  87
6HR MIN TEMP:  67; 6HR MAX TEMP:  83;

DUPAGE AIRPORT MOSUNNY   83  72  69 S9        30.04F HX  88
6HR MIN TEMP:  66; 6HR MAX TEMP:  83;

KANKAKEE*      CLOUDY    81  71  71 S5        30.07S HX  84
WHEELING       MOSUNNY   84  70  62 SW9       30.04F HX  88
6HR MIN TEMP:  68; 6HR MAX TEMP:  85;

MORRIS*        PTSUNNY   81  73  77 S7        30.04F HX  85
ROMEOVILLE*    PTSUNNY   83  69  64 SW7       30.04F HX  86
NORTHERLY ISL    N/A     82  65  56 CALM        N/A  HX  84
$$

LMZ740>746-261900-
SOUTHERN LAKE MICHIGAN

STATION/POSITION SKY/WX   TEMP    WIND        PRES    VSBY  WAVE
                          AIR SEA DIR/SP/G                  HT/PER
                          (F)     (DEG/KT/KT) (MB)    (MI)  (FT/S)
SOUTHERN BUOY              71 71  180/ 10/ 12 1017.6R         2/ 5
WILMETTE HARBOR            73 72  140/  8/ 10   N/A           1/ 3
HARRISON CRIB              78     160/  8/ 10   N/A
BURNHAM HARBOR             83                   N/A
CALUMET HARBOR             81     180/  8/ 11 1017.0F
BURNS HARBOR               82     190/  7/ 12 1017.9
MICHIGAN CITY              78     200/  5/  7   N/A
MICHIGAN CITY 6N           77 75  160/  4/  4   N/A           1
ST. JOSEPH                 75 74  240/  4/  4 1017.6          1/ 3
$$

ILZ025>027-034>036-040-047-049-050-058-095>099-261900-
WEST-CENTRAL ILLINOIS

CITY           SKY/WX    TMP DP  RH WIND       PRES   REMARKS
QUINCY         CLOUDY    88  75  65 SW7       30.03F HX  97
GALESBURG*     CLOUDY    85  77  78 S5        30.04F HX  95
MACOMB*        CLOUDY    85  76  72 SW3       30.05F HX  95
JACKSONVILLE*  CLOUDY    87  75  68 CALM      30.03F HX  96
PITTSFIELD*    CLOUDY    88  77  69 SW6       30.04F HX 100
$$

ILZ028>032-037-038-041>044-048-051>054-059>061-261900-
CENTRAL ILLINOIS

CITY           SKY/WX    TMP DP  RH WIND       PRES   REMARKS
PONTIAC        PTSUNNY   82  77  84 S5        30.06S HX  91
BLOOMINGTON    CLOUDY    83  74  74 S7        30.06F HX  89
DECATUR        PTSUNNY   86  75  69 S8        30.04F HX  95
PEORIA         CLOUDY    83  76  79 SW6       30.03F HX  91
6HR MIN TEMP:  70; 6HR MAX TEMP:  83;

LACON*         CLOUDY    82  74  78 CALM      30.03S HX  88
LINCOLN*       CLOUDY    86  79  78 SE6       30.03F HX  99
SPRINGFIELD    CLOUDY    90  78  68 VRB3      30.03F HX 104
6HR MIN TEMP:  71; 6HR MAX TEMP:  90;

TAYLORVILLE    MOSUNNY   87  77  72 SE5       30.03F HX  97
6HR MIN TEMP:  70; 6HR MAX TEMP:  87;

$$

ILZ033-039-045-046-055>057-062-063-261900-
EAST-CENTRAL ILLINOIS

CITY           SKY/WX    TMP DP  RH WIND       PRES   REMARKS
CHAMPAIGN      CLOUDY    84  74  71 SE6       30.06F HX  91
RANTOUL*       CLOUDY    85  74  69 SE6       30.06F HX  91
MATTOON        CLOUDY    84  76  76 S7        30.05F HX  93
PARIS*         MOSUNNY   83  75  77 E6        30.07S HX  91
$$

ILZ079-100>102-261900-
SOUTHWEST ILLINOIS

CITY           SKY/WX    TMP DP  RH WIND       PRES   REMARKS
ALTON          PTSUNNY   90  77  66 W9        30.04F HX 102
BELLEVILLE     CLOUDY    93  74  53 CALM      30.04F HX 102
CAHOKIA*       CLOUDY    96  73  47 VRB6      30.02F HX 105
SPARTA*        CLOUDY    95  76  53 NW3       30.04F HX 107
$$

ILZ064>066-069>071-074>076-080>082-084>086-088>090-092>094-261900-
SOUTH-CENTRAL ILLINOIS

CITY           SKY/WX    TMP DP  RH WIND       PRES   REMARKS
CARBONDALE     MOSUNNY   93  76  57 SW10G18   30.04F HX 105
6HR MIN TEMP:  75; 6HR MAX TEMP:  93;

CAIRO*         SUNNY     91  79  66 SW7       30.05F HX 107
EFFINGHAM*     CLOUDY    88  76  67 E3        30.06F HX  99
MARION         MOSUNNY   95  77  55 S15       30.05F HX 109
MT. VERNON     CLOUDY    93  79  63 S6        30.04F HX 110
CENTRALIA*     CLOUDY    91  79  66 SW6       30.03F HX 107
SALEM*         MOSUNNY   91  77  63 CALM      30.04F HX 104
METROPOLIS*    MOSUNNY   92  77  62 SW5       30.06F HX 105
$$

ILZ067-068-072-073-078-083-087-091-261900-
SOUTHEAST ILLINOIS

CITY           SKY/WX    TMP DP  RH WIND       PRES   REMARKS
LAWRENCEVILLE  MOSUNNY   87  76  69 SE6       30.05F HX  97
FLORA*         MOSUNNY   91  78  65 S5        30.04F HX 106
FAIRFIELD*     MOSUNNY   90  78  68 CALM      30.03F HX 104
HARRISBURG*    PTSUNNY   94  78  59 SW9       30.04F HX 108
ROBINSON*      MOSUNNY   85  76  74 SE7       30.06F HX  94
CARMI*         SUNNY     90  81  75 S7        30.03F HX 110
$$

ABBREVIATIONS USED IN REMARKS
   TC - TEMPERATURE IN CELSIUS
  WCI - WIND CHILL INDEX
   HX - HEAT INDEX
  VSB - VISIBILITY
$$





USA.gov is the U.S. government's official web portal to all federal, state and local government web resources and services.